MDT,Max TemperatureF,Mean TemperatureF,Min TemperatureF,Max Dew PointF,MeanDew PointF,Min DewpointF,Max Humidity, Mean Humidity, Min Humidity, Max Sea Level PressureIn, Mean Sea Level PressureIn, Min Sea Level PressureIn, Max VisibilityMiles, Mean VisibilityMiles, Min VisibilityMiles, Max Wind SpeedMPH, Mean Wind SpeedMPH, Max Gust SpeedMPH,PrecipitationIn, CloudCover, Events, WindDirDegrees
2013-10-1,77,62,48,38,32,27,53,35,20,29.86,29.81,29.73,10,10,10,18,9,25,0.00,0,,44
2013-10-2,77,60,44,36,23,12,71,28,9,29.88,29.81,29.74,10,10,10,24,7,33,0.00,0,,264
2013-10-3,73,60,48,28,23,13,41,27,11,29.77,29.70,29.62,10,10,10,29,12,38,0.00,0,,208
2013-10-4,64,51,39,28,18,4,38,25,13,29.96,29.75,29.60,10,10,10,28,17,38,0.00,1,,265
2013-10-5,55,41,27,26,21,16,85,47,22,30.22,30.11,29.97,10,10,10,15,8,,0.00,1,Rain,163
2013-10-6,66,48,30,19,13,5,54,29,10,30.23,30.18,30.11,10,10,10,16,7,21,0.00,0,,126
2013-10-7,72,51,30,20,17,14,59,28,12,30.22,30.08,29.92,10,10,10,23,8,31,0.00,0,,195
2013-10-8,75,58,43,27,22,16,44,28,11,29.91,29.82,29.75,10,10,10,25,12,31,0.00,0,,209
2013-10-9,70,57,44,36,26,15,56,35,13,29.86,29.79,29.73,10,10,10,21,11,31,0.00,0,Rain,201
2013-10-10,66,52,35,42,33,21,80,55,30,29.89,29.73,29.57,10,10,9,43,18,53,0.05,3,Rain,214
2013-10-11,64,47,30,25,21,7,75,44,11,29.96,29.84,29.76,10,10,10,24,9,29,0.00,0,,259
2013-10-12,59,44,30,32,29,24,79,57,35,30.20,30.11,29.94,10,9,2,17,9,23,0.00,0,,73
2013-10-13,61,46,34,52,42,30,100,78,58,30.32,30.14,29.95,10,8,0,24,9,32,0.00,5,Fog-Rain,157
2013-10-14,61,50,39,50,35,11,97,64,16,30.14,29.96,29.79,10,9,2,30,20,44,0.01,4,,217
2013-10-15,51,39,28,32,25,17,93,59,43,30.23,30.08,29.97,10,10,5,15,8,21,0.01,4,Rain-Snow,107
2013-10-16,53,42,30,36,30,23,100,84,32,30.21,30.12,29.94,10,6,1,22,7,28,0.14,6,Snow,170
2013-10-17,60,44,30,25,20,15,66,42,18,30.05,29.95,29.83,10,10,10,13,7,18,0.00,0,,241
2013-10-18,52,38,26,29,22,14,89,55,32,30.19,29.99,29.81,10,10,10,21,5,26,0.00,1,,114
2013-10-19,63,42,21,29,17,9,96,49,13,30.20,30.06,29.91,10,10,10,18,8,25,0.00,0,,261
2013-10-20,64,50,36,29,18,10,76,33,13,29.99,29.84,29.71,10,10,10,21,7,26,0.00,1,,61
2013-10-21,54,40,28,34,29,26,93,69,38,30.25,30.12,29.99,10,10,10,14,6,,0.00,2,,146
2013-10-22,63,46,30,28,20,13,82,42,18,30.22,30.14,30.08,10,10,10,14,8,18,0.00,0,,145
2013-10-23,69,52,37,22,18,13,50,29,12,30.11,30.04,29.96,10,10,10,14,5,21,0.00,0,,79
2013-10-24,64,48,33,31,26,22,66,47,25,30.22,30.13,30.06,10,10,10,23,9,30,0.00,0,,85
2013-10-25,55,47,39,44,37,29,93,73,55,30.22,30.13,30.05,10,10,7,25,11,36,0.04,3,Rain,200
2013-10-26,59,48,37,36,30,25,73,53,29,30.27,30.17,30.05,10,10,10,26,9,31,0.00,2,Rain,30
2013-10-27,66,50,36,30,28,25,73,48,25,30.17,29.98,29.81,10,10,10,22,9,22,0.00,0,,224
2013-10-28,64,52,41,36,28,20,67,46,19,29.88,29.82,29.76,10,10,10,24,12,30,0.00,0,,202
2013-10-29,59,49,41,23,21,18,45,33,21,29.93,29.84,29.78,10,10,10,25,13,31,0.00,0,,199
2013-10-30,55,44,32,36,27,19,89,57,28,29.91,29.79,29.70,10,10,4,30,15,41,0.04,3,Rain,232
2013-10-31,55,42,30,23,20,16,72,47,21,29.93,29.83,29.70,10,10,10,24,9,31,0.00,0,,333